Theta_e
287 287 287 287 287 287 287 287 287 288 288 288 288 288 288 288 288 288 287 287 287 286 286 285 285 284 283 283 282 282 281 281 281 281 281 281 281 281 281 281 281 281 281 281 280 280 280 279 279 279 278 278 279 279 279 279 280 280 280 280 281 281 281 282 283 283 283 283 283 283 283 283 283 283 284 284 284 284 284 284 285 285 285 285 285
287 287 287 287 287 287 287 287 287 288 288 288 288 288 288 288 288 287 287 286 286 285 285 285 284 283 283 282 281 281 281 280 280 280 280 280 280 280 280 280 280 280 280 279 279 279 278 278 278 278 278 278 278 278 278 279 279 279 279 280 280 280 281 281 281 282 282 282 282 282 282 283 283 283 283 283 283 283 283 284 284 284 285 285 285
287 287 287 287 287 287 287 287 287 287 287 288 288 288 288 287 287 287 286 286 285 285 284 284 283 283 282 281 281 280 280 280 280 280 280 280 279 279 279 279 279 278 278 278 278 277 277 277 278 278 277 277 277 277 278 278 278 278 278 279 279 279 279 280 280 281 281 281 281 281 282 282 282 282 282 282 282 283 283 283 283 284 284 284 285
287 287 287 287 287 287 287 287 287 287 287 288 288 287 287 287 286 286 285 285 284 284 284 283 283 282 282 281 280 280 280 280 279 279 279 279 279 279 278 278 278 278 277 277 277 277 277 277 277 276 276 276 276 277 277 277 277 277 277 278 278 278 278 279 279 280 280 280 281 281 281 281 281 281 282 282 282 282 282 283 283 283 284 284 284
287 287 287 287 286 286 286 287 287 287 288 288 287 287 287 286 286 285 284 284 284 284 283 283 282 282 281 280 280 280 279 279 279 279 279 278 278 278 278 278 277 277 276 276 276 276 276 276 276 276 275 276 276 276 276 276 276 276 276 277 277 277 278 278 278 279 279 279 280 280 280 280 280 280 281 281 281 281 282 282 283 283 283 284 284
287 287 287 286 286 286 286 287 287 287 288 288 287 286 286 285 285 284 284 284 283 283 283 282 282 281 280 280 279 279 279 278 278 278 278 278 278 278 278 277 277 276 276 276 275 275 275 275 275 275 275 275 275 275 275 275 275 276 276 276 276 277 277 277 277 278 278 278 278 279 279 279 279 279 280 280 280 281 281 281 282 283 283 283 284
287 286 286 286 286 286 287 287 287 287 288 287 286 286 285 285 285 284 284 283 283 282 282 282 281 280 280 279 279 278 278 278 278 278 278 278 278 277 276 276 276 275 275 275 275 275 275 275 275 275 275 275 275 275 275 275 275 275 275 275 275 276 276 276 276 277 277 277 277 278 278 278 278 279 279 279 279 280 280 281 281 282 282 282 282
286 286 286 286 286 287 287 287 287 287 287 286 286 285 285 285 284 284 283 283 282 282 282 281 281 280 279 279 278 278 278 278 278 277 277 277 277 276 276 275 275 275 275 275 275 275 274 274 274 274 274 274 274 274 274 274 274 274 274 274 274 275 275 275 275 275 275 276 276 276 277 277 277 277 278 278 278 279 279 279 279 279 280 281 281
286 286 286 286 286 287 287 287 287 287 286 286 285 285 285 284 284 283 283 282 282 282 281 281 280 279 279 278 278 278 278 277 277 277 277 277 276 276 275 274 274 274 275 275 274 274 274 274 274 274 273 273 273 273 273 273 273 273 273 274 274 274 274 274 274 274 274 274 275 275 275 276 276 276 277 277 277 278 278 278 278 279 279 279 280
286 286 286 286 286 286 286 287 287 286 285 285 285 285 285 284 284 283 282 282 281 281 281 280 279 279 278 278 277 277 277 277 277 277 276 276 276 275 274 273 274 274 274 274 274 274 274 274 273 273 272 272 272 272 272 272 273 273 273 273 273 273 273 273 273 273 274 274 274 274 275 275 275 276 276 276 276 277 277 277 277 278 278 278 278
286 286 286 286 286 286 286 286 286 285 285 285 285 285 284 284 284 283 282 282 281 281 280 280 279 278 278 277 277 277 277 277 277 276 276 276 275 274 273 273 274 274 274 274 274 273 273 273 272 272 272 271 271 271 271 272 272 272 272 272 272 272 273 273 273 273 273 273 274 274 274 274 274 274 275 275 275 275 276 276 276 276 277 277 277
285 286 286 286 286 286 286 285 285 285 285 284 284 284 284 284 284 283 282 281 281 280 280 279 278 278 277 277 277 277 276 276 276 276 276 275 275 274 273 273 274 274 274 274 273 273 272 272 272 271 271 271 271 271 271 271 271 271 271 272 272 272 272 272 273 273 273 273 273 273 273 274 274 274 274 275 275 275 275 275 276 276 276 277 277
285 285 285 285 285 285 285 285 284 285 284 284 284 284 284 284 284 283 282 281 280 279 279 278 278 277 277 277 276 276 276 276 276 276 275 275 274 273 272 273 274 273 273 272 272 272 271 271 271 271 271 271 271 271 271 270 271 271 271 271 271 271 272 272 273 273 273 273 273 273 274 274 274 274 274 274 275 275 275 275 276 276 277 277 277
285 285 285 285 285 285 285 284 284 284 284 284 283 284 284 284 284 283 282 280 279 279 278 278 277 277 277 276 276 276 276 276 275 275 275 274 273 272 271 272 273 272 271 271 271 271 271 271 271 271 271 271 271 271 271 271 271 271 271 271 271 271 272 272 273 273 273 273 274 274 274 274 274 274 274 275 275 275 275 276 276 276 277 277 277
285 285 285 285 285 285 284 284 284 284 283 283 283 283 284 284 283 282 281 279 279 278 278 277 277 277 276 276 276 276 275 275 275 275 275 274 273 271 271 271 271 271 270 270 270 270 270 270 270 271 271 271 271 271 271 271 272 272 272 272 272 272 272 273 273 273 274 274 274 274 274 274 274 274 274 275 275 275 275 276 276 276 277 277 277
285 285 285 285 285 285 284 284 284 283 283 283 283 283 284 283 283 281 280 279 278 278 278 277 277 276 276 276 275 275 275 275 274 274 274 273 273 272 271 271 270 270 270 270 270 270 270 270 270 270 271 271 271 272 272 273 273 273 273 273 273 273 273 273 274 274 274 275 275 275 275 275 275 275 275 275 276 276 276 276 277 277 277 277 277
286 286 286 286 286 285 285 284 284 283 283 283 283 283 283 283 282 280 279 278 278 278 277 277 277 276 276 275 275 275 275 274 274 274 274 273 272 271 270 270 271 271 270 270 270 270 270 270 270 271 271 271 272 272 273 274 274 274 274 274 274 274 275 275 275 275 275 276 276 276 276 276 276 277 277 277 277 277 277 277 277 277 277 277 277
287 287 287 287 287 286 286 285 284 283 283 283 283 283 283 282 281 280 279 278 278 278 277 277 277 276 276 275 275 275 275 274 274 274 274 273 272 270 270 270 271 271 271 271 271 271 271 271 271 272 272 272 272 273 274 275 275 275 275 275 275 275 275 275 275 276 276 276 276 276 277 277 276 277 277 277 277 277 277 277 277 277 277 277 277
289 289 288 288 287 287 286 285 284 284 283 283 283 283 282 281 280 279 279 278 277 277 277 276 276 276 275 275 274 274 274 274 274 274 274 273 272 270 270 271 271 271 271 271 271 271 272 272 272 272 273 273 274 274 275 275 276 276 276 276 276 276 276 276 276 276 276 276 276 276 276 276 276 276 276 276 276 276 277 277 276 276 276 276 276
290 289 289 288 287 286 285 285 284 284 283 283 283 282 281 280 280 279 278 277 277 277 277 276 276 275 275 275 274 274 274 274 274 274 274 273 272 270 270 271 271 271 271 271 272 272 272 273 273 273 273 274 274 275 275 276 276 276 276 276 276 276 276 276 276 276 276 276 276 276 276 276 276 276 276 276 276 276 276 276 276 276 276 276 276
289 289 288 287 287 286 285 284 284 283 283 282 281 281 280 280 279 278 277 277 277 276 276 276 275 275 275 274 274 273 273 273 273 273 273 273 271 270 271 271 271 272 272 272 273 273 273 273 273 273 274 274 275 275 276 276 276 276 276 276 276 276 276 276 276 276 276 276 276 276 276 276 276 276 276 276 276 276 276 276 276 276 276 276 276
288 288 287 287 286 286 285 284 283 283 282 281 281 280 280 279 278 277 277 276 276 276 275 275 274 274 274 274 274 273 273 273 273 273 273 272 270 270 271 272 272 273 273 273 273 273 273 273 273 273 274 274 275 275 275 275 275 275 275 275 275 275 275 275 275 274 274 274 274 274 274 274 274 274 274 275 275 275 275 275 275 275 275 275 275
288 287 287 286 286 285 284 284 283 282 282 281 280 280 279 278 278 277 276 276 275 275 275 274 274 273 273 273 273 273 272 272 272 273 272 271 269 271 272 272 273 273 273 273 273 274 274 274 273 274 274 274 274 274 274 273 273 272 273 273 273 273 273 273 272 272 272 272 272 272 272 272 273 273 273 273 274 274 274 274 274 274 274 274 274
287 286 286 286 285 284 284 283 282 282 281 280 279 279 278 277 277 276 276 275 275 274 274 274 273 272 272 272 272 272 271 271 272 272 271 269 269 271 272 272 273 273 273 274 274 274 274 273 273 273 273 272 272 271 271 271 270 271 271 271 271 271 270 270 270 270 270 270 270 271 271 271 272 272 272 272 273 273 273 273 273 273 273 273 273
286 285 285 285 284 284 283 282 281 281 280 280 279 278 278 277 276 275 275 274 274 274 273 273 272 271 271 271 271 270 270 269 270 270 269 269 270 271 271 272 273 273 274 274 273 273 273 272 272 271 270 270 269 269 268 268 269 269 269 269 269 268 268 268 268 269 269 269 269 270 270 270 271 271 271 272 272 272 272 273 273 273 273 273 274
285 284 284 284 284 283 282 281 281 280 279 279 278 277 277 276 275 274 274 274 273 273 272 272 271 270 270 270 269 269 268 268 268 268 269 269 270 271 271 272 273 273 273 273 272 272 271 271 270 269 268 268 268 267 267 267 267 267 267 267 266 266 266 266 267 267 267 268 268 268 269 269 270 270 270 271 271 272 272 273 273 273 274 274 274
284 284 284 283 283 282 281 281 280 279 278 278 277 276 276 275 274 274 274 274 273 272 271 271 271 270 269 269 268 268 267 268 268 269 269 270 270 271 272 272 273 273 272 272 271 270 270 269 268 268 268 269 268 266 266 265 266 266 265 265 265 265 265 265 265 266 266 266 267 267 268 268 269 269 270 270 271 271 272 272 273 273 274 274 275
284 284 284 283 282 282 281 280 279 278 278 277 276 276 276 275 274 274 274 273 272 272 271 271 271 270 269 268 268 267 268 268 269 269 270 270 271 272 272 272 273 273 272 271 270 270 269 268 268 268 268 268 267 266 265 265 265 265 264 264 264 264 265 265 265 265 265 266 266 266 267 267 268 268 269 269 270 270 271 272 273 273 274 274 275
283 282 282 282 281 281 279 278 277 277 276 276 276 275 275 275 274 274 274 273 272 271 271 271 271 271 269 268 268 268 268 269 269 270 271 271 272 272 272 273 273 272 271 271 270 269 268 267 267 267 266 266 265 265 265 265 264 264 264 264 264 264 264 264 265 265 265 265 265 266 266 266 267 267 268 269 269 270 271 272 272 273 273 274 275
281 280 280 279 279 278 277 277 276 275 275 275 275 274 274 273 273 273 273 272 272 271 271 271 271 270 269 269 269 269 269 270 270 271 272 271 271 272 272 273 273 272 271 270 268 268 267 267 266 266 264 264 264 264 264 264 264 264 264 264 264 264 264 264 264 265 265 265 265 266 266 266 267 267 268 269 269 270 270 271 272 272 273 274 275
279 278 278 278 278 277 276 276 275 274 274 274 273 273 272 272 272 272 272 271 271 271 271 270 270 269 269 270 270 270 270 270 271 271 271 271 271 272 272 272 271 270 269 268 267 266 266 266 265 264 264 264 264 264 263 263 263 263 263 263 264 264 264 264 264 264 265 265 265 266 266 266 267 267 268 268 269 269 270 270 271 271 272 273 274
278 278 277 277 276 275 274 274 274 274 274 273 272 271 271 271 271 271 271 270 270 270 269 269 269 269 269 270 270 270 270 270 270 270 270 270 271 272 272 271 270 269 268 267 266 266 265 265 264 264 264 264 264 263 263 262 263 263 263 263 263 263 264 264 264 264 264 265 265 266 266 267 267 267 268 268 268 269 269 269 270 270 271 272 273
278 277 276 275 273 272 272 272 273 273 273 272 271 271 270 270 270 270 270 269 268 268 268 268 268 268 269 269 270 270 270 270 270 270 270 270 271 271 271 270 269 268 267 266 266 266 265 264 263 263 263 263 263 263 262 262 262 262 262 262 263 263 263 264 264 264 264 265 266 266 267 267 267 267 267 268 268 268 269 269 269 270 271 271 273
276 275 274 274 273 273 272 273 273 273 272 271 271 270 270 269 269 269 269 268 268 267 268 268 268 268 268 268 269 269 268 268 269 269 269 270 270 270 269 268 267 267 266 265 265 265 264 263 263 263 263 262 263 262 262 262 262 262 262 262 263 263 263 263 264 264 265 266 266 266 267 267 267 267 267 267 268 268 268 268 269 269 270 271 272
273 273 273 273 273 273 273 273 273 272 271 270 270 269 269 268 268 267 267 267 268 268 268 268 268 268 267 267 268 267 267 267 268 268 269 269 269 269 268 267 266 266 265 265 265 265 264 263 262 262 262 262 262 262 262 262 261 261 262 262 262 263 263 263 264 265 266 266 266 267 267 267 267 267 267 267 267 268 268 268 269 269 270 270 271
272 271 271 271 272 272 272 272 271 271 270 269 269 268 268 267 266 266 266 266 266 267 268 268 269 268 267 267 267 267 266 266 266 267 268 268 268 267 267 266 265 265 265 265 265 264 264 263 263 262 262 262 262 262 262 261 261 261 261 261 262 262 263 263 264 265 266 266 266 267 267 267 267 267 267 267 267 267 268 268 268 269 269 270 271
271 270 270 271 271 271 270 270 270 269 268 268 267 267 266 266 265 264 264 265 265 265 266 267 268 268 268 268 267 266 266 266 265 266 267 267 266 266 266 265 264 264 264 264 264 263 263 263 263 263 262 262 262 261 261 261 261 261 261 261 262 262 263 263 265 265 266 266 266 267 267 267 267 267 267 267 267 267 268 268 268 269 269 270 270
270 269 270 270 270 270 269 268 268 267 266 266 266 265 265 264 264 263 263 263 263 263 264 265 266 267 268 268 267 266 265 265 265 265 266 266 266 265 265 264 264 264 264 264 264 263 263 263 263 263 262 262 262 261 261 261 261 261 261 261 262 262 263 264 265 265 265 266 266 266 267 267 267 267 267 267 267 267 268 268 268 269 269 270 270
268 268 269 269 268 268 267 267 266 266 265 265 264 264 263 263 263 262 262 262 262 262 262 262 264 266 267 267 266 265 265 264 264 264 264 265 265 265 264 263 263 264 264 264 264 263 263 263 263 263 263 262 262 262 261 261 261 261 261 261 261 262 263 264 264 265 265 266 266 266 267 267 267 267 267 267 267 267 268 268 268 269 269 270 270
268 268 268 267 267 266 266 266 265 265 264 264 263 263 263 262 262 262 261 261 261 261 261 261 263 265 267 266 265 265 264 263 263 264 264 263 263 264 264 263 263 263 264 264 264 263 263 263 263 263 263 263 262 262 262 262 261 261 260 260 261 262 262 263 264 265 265 265 265 266 266 267 267 267 267 267 267 267 267 268 268 268 269 269 270
267 267 267 266 265 265 264 264 264 264 264 263 263 262 262 261 261 261 261 260 260 260 260 261 263 265 266 265 264 264 263 262 263 263 263 262 262 263 263 263 263 263 264 264 264 263 263 263 263 263 263 263 263 263 262 262 261 261 260 260 260 261 262 263 264 264 265 265 265 265 266 266 267 267 267 267 267 267 267 267 268 268 269 269 270
266 266 265 265 264 263 263 263 263 263 262 262 262 261 261 261 260 260 260 259 259 260 259 260 262 264 265 264 264 263 262 262 263 263 263 262 262 263 263 263 263 263 263 263 263 263 263 263 263 263 263 263 263 263 262 262 262 261 261 261 260 260 261 262 263 264 264 264 265 265 265 266 267 267 266 267 267 267 267 267 268 268 269 269 270
264 264 264 264 263 263 262 262 262 262 261 261 261 261 260 260 259 259 259 259 259 259 259 259 261 263 264 264 263 262 262 262 262 262 262 262 262 263 263 263 263 263 263 263 263 262 262 262 262 262 262 262 262 262 262 262 262 261 261 261 261 261 261 261 262 263 264 264 264 264 265 266 266 266 266 266 266 266 267 267 267 268 268 269 270
264 263 263 263 262 262 262 262 261 261 261 261 260 260 260 259 259 259 259 259 259 259 259 259 260 261 262 263 262 262 262 262 262 262 262 262 262 263 263 263 263 263 262 262 262 262 262 262 262 262 262 262 262 262 262 262 262 261 261 261 261 261 261 261 262 262 263 263 263 264 265 266 266 266 266 266 266 266 266 267 267 267 268 268 269
263 263 262 262 261 261 261 261 261 261 260 260 259 259 259 259 259 259 258 258 258 258 258 259 259 259 260 261 262 261 262 262 262 262 262 262 262 263 263 263 262 262 262 262 262 262 262 262 262 262 262 262 262 262 262 262 262 262 261 261 261 262 262 261 262 262 262 263 263 264 264 266 266 265 265 265 265 265 266 266 267 267 268 268 269
262 262 261 261 261 261 260 260 260 260 260 259 259 258 258 258 258 258 258 258 258 258 258 258 258 258 259 261 261 261 262 262 262 262 262 262 262 263 263 262 262 262 262 262 262 262 262 262 261 261 262 262 262 262 262 262 262 262 262 261 262 262 262 262 262 262 262 263 264 264 264 265 265 265 265 265 265 265 265 266 266 266 267 268 268
261 261 261 261 260 260 260 260 259 259 259 259 258 258 258 257 257 257 257 257 257 257 257 257 257 257 258 260 261 261 261 262 262 262 262 262 262 262 262 262 262 262 262 262 262 262 262 262 261 261 261 262 262 262 262 262 262 262 262 261 262 262 261 261 262 262 263 263 264 264 264 265 265 265 265 265 265 265 265 265 266 266 266 267 268
261 260 260 260 260 259 259 259 259 258 258 258 258 257 257 257 257 257 257 257 257 257 257 257 258 258 259 260 260 261 261 261 261 262 262 262 262 262 262 261 261 261 262 262 262 262 262 262 261 261 261 262 262 262 262 262 262 262 262 262 262 262 261 261 262 262 263 264 264 264 264 265 265 265 265 266 265 265 265 265 265 265 266 266 267
260 260 260 259 259 259 259 259 258 258 258 257 257 257 257 257 257 257 257 257 257 257 258 258 259 259 259 260 260 261 261 261 261 261 261 261 261 261 261 261 261 261 261 262 262 262 262 262 262 261 261 262 262 262 262 262 262 262 262 262 262 262 261 262 262 263 263 263 264 264 265 265 265 265 265 266 266 265 265 265 265 265 265 266 266
259 259 259 259 259 259 259 258 258 258 258 258 257 257 257 257 257 257 257 257 257 257 258 258 259 259 260 260 260 260 260 260 261 261 261 261 261 261 261 261 261 261 261 261 262 262 262 262 262 261 261 261 261 261 261 261 261 262 262 262 262 262 262 262 262 262 263 263 264 264 265 265 265 265 265 265 265 265 265 265 265 265 265 265 265
260 260 260 259 259 259 259 259 258 258 258 258 258 257 257 257 257 257 257 257 257 258 258 259 259 259 260 260 260 260 260 260 260 260 260 261 261 261 261 261 261 261 261 261 262 262 261 261 261 261 261 261 261 261 261 261 261 261 261 262 262 262 262 262 262 262 263 264 264 264 265 265 265 265 265 265 265 265 265 265 265 265 265 265 265
Wind_Speed
27 26 25 24 23 22 22 21 20 19 17 16 15 14 13 12 11 11 10 10 11 11 11 11 11 12 12 12 13 13 14 14 14 14 14 15 15 15 16 17 17 17 18 18 19 19 19 19 19 17 16 16 14 12 12 12 12 12 12 12 14 12 13 15 15 19 27 25 23 26 21 20 28 31 30 32 31 28 26 25 25 25 26 28 33
27 26 25 24 23 22 22 21 19 18 16 14 12 11 10 9 9 8 8 8 9 10 11 12 13 13 14 14 14 14 15 15 15 15 14 15 15 15 16 16 17 17 17 18 18 18 18 17 16 14 14 15 15 14 13 13 13 13 13 13 15 15 13 16 17 18 25 28 25 27 23 17 21 25 21 24 32 32 29 28 25 23 24 25 28
27 26 25 24 23 22 21 19 18 16 14 12 11 9 8 7 6 6 6 7 9 10 12 13 14 14 14 15 15 15 15 15 15 15 15 15 15 15 16 16 16 16 17 17 17 16 16 15 14 13 14 15 15 14 13 13 13 13 15 14 15 17 15 16 18 19 22 27 27 27 26 20 18 22 20 20 27 31 30 29 27 25 24 24 24
27 26 25 24 23 22 20 18 17 15 13 11 9 7 6 5 4 4 6 7 9 10 12 13 14 15 15 15 15 15 15 15 15 15 15 15 15 15 15 16 16 16 16 16 16 15 14 14 14 15 16 15 14 13 12 13 14 14 16 16 15 17 17 15 18 19 21 25 27 26 27 25 21 22 22 21 22 26 27 27 27 26 26 25 24
28 26 25 24 23 21 20 18 16 14 12 9 8 7 5 3 3 4 5 7 9 10 12 13 14 14 15 15 15 15 15 14 14 14 14 15 15 15 16 16 17 17 17 17 16 14 13 14 14 15 15 14 14 13 13 14 16 15 15 16 16 16 17 17 17 19 21 24 28 28 27 26 24 22 22 22 23 25 25 25 26 27 27 27 25
28 27 26 25 24 22 20 18 16 13 11 9 8 6 4 2 1 3 5 7 8 10 11 13 14 14 14 14 14 14 14 14 14 14 14 15 15 16 16 16 17 17 17 17 15 14 14 14 14 13 13 14 14 14 14 15 16 16 16 16 17 17 18 18 18 19 21 23 26 28 27 26 25 24 22 22 24 25 26 25 25 24 24 25 25
29 28 27 26 24 22 20 18 16 13 12 10 8 6 4 2 1 3 5 7 8 10 11 13 13 14 14 14 14 13 13 13 13 14 14 15 16 16 16 16 17 17 16 15 14 14 15 14 14 14 13 13 14 14 15 16 16 17 17 17 17 17 18 18 18 19 20 22 23 25 26 25 24 24 23 22 23 23 23 24 24 23 23 24 27
31 29 28 27 25 23 20 18 16 14 13 11 9 7 6 4 3 4 6 7 8 9 11 13 13 14 14 14 13 13 13 13 13 14 14 14 15 15 16 16 16 16 16 15 15 15 16 15 14 13 13 13 14 14 15 16 17 18 18 17 17 18 18 18 18 18 19 21 22 22 23 24 23 23 23 22 22 22 20 22 25 26 26 25 26
32 31 29 28 26 23 21 19 17 16 14 12 10 9 7 6 5 6 7 8 9 10 11 13 14 14 14 14 13 12 12 13 13 13 14 14 14 15 16 16 15 15 15 15 16 15 15 14 13 14 17 19 18 18 17 16 17 18 18 17 17 18 18 18 17 18 18 19 21 20 21 22 21 21 21 20 21 23 22 23 25 26 25 26 27
34 33 31 29 26 24 22 20 18 17 15 14 12 11 9 7 7 7 8 9 9 10 12 13 14 14 14 14 13 12 12 12 12 12 12 13 14 14 15 16 15 13 12 13 15 15 14 14 14 17 20 22 20 19 18 17 17 18 18 18 17 18 19 19 18 18 19 20 20 20 20 21 20 21 22 22 23 25 24 23 25 26 24 25 27
36 34 32 30 28 25 23 21 20 19 17 16 14 12 11 9 9 9 9 10 10 11 12 13 14 14 14 14 13 12 12 12 12 12 11 11 12 13 14 14 13 12 11 11 13 15 15 15 15 16 18 18 18 18 18 18 17 18 18 18 18 19 19 20 19 19 19 20 21 20 20 22 21 21 22 23 23 23 23 23 24 25 23 21 22
36 35 33 31 29 27 25 24 22 21 19 18 16 14 12 11 10 10 11 11 11 12 13 14 14 14 14 14 13 12 12 12 12 12 11 11 11 11 12 13 12 11 11 12 14 16 15 16 16 15 16 17 18 18 19 18 18 18 18 17 18 18 18 19 19 20 20 22 23 23 22 23 23 21 20 21 22 22 22 22 22 23 24 22 22
36 35 34 32 30 28 27 26 24 23 21 20 18 15 14 12 12 12 13 13 12 12 13 14 14 14 14 14 13 12 12 12 12 12 11 11 10 10 12 13 11 12 14 15 16 16 15 16 16 15 16 17 18 18 18 18 18 18 17 17 17 17 18 19 20 22 24 25 27 27 25 24 24 22 20 21 24 24 24 24 24 24 26 25 26
36 35 34 33 31 30 29 27 26 25 23 22 19 17 15 14 14 14 14 13 13 13 14 15 15 14 14 15 14 13 12 12 12 11 11 11 9 9 12 13 13 16 17 16 14 14 14 15 16 17 17 17 17 17 18 19 19 18 17 18 19 20 21 23 25 27 28 28 29 29 27 26 25 26 26 26 28 28 27 27 27 27 28 28 29
36 36 34 33 32 31 30 29 28 27 25 23 20 18 16 15 15 15 15 14 14 14 15 15 15 15 15 15 15 13 12 12 12 11 11 11 9 10 13 14 15 16 15 13 12 12 13 14 15 17 18 18 18 18 19 20 19 20 22 26 28 28 26 26 27 28 28 27 28 29 28 28 27 29 30 29 30 31 30 30 30 30 31 30 29
36 36 35 34 33 32 31 30 30 29 27 24 21 19 18 17 17 16 16 15 14 15 16 16 16 16 15 15 15 14 12 11 12 11 11 11 10 12 14 14 14 14 12 12 11 11 12 13 15 17 19 20 20 20 21 22 23 25 29 33 36 35 33 31 30 30 30 30 31 32 31 31 32 33 33 33 33 33 32 32 31 30 31 29 28
35 35 35 35 34 33 32 32 32 30 28 25 22 20 19 18 17 17 16 16 15 16 17 17 16 16 15 15 16 15 12 11 12 12 12 11 11 12 13 12 12 12 12 12 13 12 12 13 16 19 20 21 21 22 23 25 26 28 31 34 34 34 34 32 28 30 33 35 36 37 36 36 37 37 37 36 35 34 33 31 28 27 28 24 21
35 35 35 35 34 34 34 33 32 30 28 25 23 21 20 19 18 17 16 16 16 17 17 18 17 16 16 15 16 16 14 12 12 12 12 11 11 11 12 11 11 12 13 13 12 12 13 16 19 21 21 21 22 25 26 26 27 28 30 32 32 31 31 30 28 30 32 33 34 35 35 35 35 35 34 33 32 30 31 31 29 28 28 24 22
34 34 34 34 34 34 34 33 31 29 28 25 23 22 21 19 18 17 17 17 18 17 17 18 18 17 16 15 15 16 16 13 12 13 13 12 10 10 10 10 11 12 12 13 14 15 17 18 19 20 21 23 25 26 27 26 27 28 28 29 30 29 28 28 27 28 28 28 29 29 29 28 27 27 26 27 28 28 31 32 31 29 29 28 27
32 32 33 33 33 33 32 31 30 29 27 25 24 22 20 19 18 18 18 18 18 18 18 18 19 18 17 16 15 15 16 14 13 13 13 12 9 9 9 10 12 13 13 15 19 19 18 17 16 17 20 23 25 27 28 29 29 29 28 26 26 27 28 29 29 30 29 28 26 25 25 23 22 22 22 23 24 26 27 28 28 28 27 28 28
29 31 31 32 32 31 31 30 29 28 27 25 24 22 20 19 19 18 18 19 19 19 18 19 20 19 18 17 15 14 15 15 14 13 13 11 8 8 10 11 12 13 15 17 18 18 17 17 17 18 21 24 27 29 31 31 31 30 29 27 28 30 33 34 32 29 26 24 23 22 22 21 21 21 22 22 23 23 24 24 24 25 26 27 27
29 30 30 31 30 30 30 30 29 28 28 26 24 22 20 20 20 19 19 19 19 19 19 19 20 20 19 18 16 14 15 15 14 14 13 9 7 9 11 12 13 14 16 17 17 18 18 18 18 19 23 27 30 31 31 31 31 30 29 29 31 33 33 31 28 24 22 22 23 23 22 22 22 23 23 23 23 22 22 22 22 23 25 26 27
29 30 30 30 30 29 30 30 30 29 28 26 24 22 21 21 20 19 19 19 19 20 19 19 19 20 19 18 17 15 14 13 13 14 11 7 8 11 12 13 13 14 16 18 19 18 17 17 19 22 26 29 29 30 30 29 28 27 27 28 30 30 28 26 23 22 21 21 21 20 20 20 21 22 22 22 22 21 20 20 21 23 24 25 28
29 29 30 29 30 30 30 31 30 30 28 26 24 23 23 21 21 20 19 19 20 20 19 19 19 19 19 19 18 16 15 13 12 12 10 7 9 12 12 13 14 14 16 17 17 17 17 19 22 25 27 27 28 28 27 25 24 24 25 26 26 25 22 21 20 20 19 19 18 18 18 18 19 20 20 21 21 21 22 22 23 23 24 26 28
30 30 30 31 31 31 31 31 31 30 28 27 26 25 23 22 21 20 20 20 20 20 19 19 19 18 18 18 17 16 14 12 12 12 10 8 9 11 12 13 14 14 15 16 16 17 19 21 23 24 25 26 25 24 22 20 19 20 22 22 21 19 18 18 18 18 18 18 18 19 19 20 20 21 21 22 23 24 24 24 24 24 24 26 30
31 32 32 33 33 33 32 32 32 30 29 28 27 25 23 22 21 20 20 20 20 20 19 18 18 18 17 16 15 14 11 11 12 12 10 8 8 11 12 13 13 14 14 15 16 17 19 21 23 23 23 22 22 19 17 17 17 18 18 18 17 16 16 17 17 18 18 19 19 20 20 21 21 22 23 23 24 24 24 24 24 23 23 25 28
33 34 34 34 34 34 34 34 33 32 31 30 28 26 24 23 22 22 21 21 20 19 18 18 17 17 16 14 13 10 8 9 11 10 8 8 10 12 12 12 13 12 12 14 15 17 20 24 25 24 21 21 21 19 17 17 17 16 15 15 15 15 15 15 16 17 18 18 19 20 21 21 22 22 22 22 22 23 24 24 24 24 24 25 26
35 36 36 36 36 36 36 35 34 33 32 31 28 26 25 24 23 23 22 21 20 19 18 18 17 16 14 12 10 7 7 8 9 8 8 10 12 13 12 13 12 10 11 13 15 18 23 26 24 22 21 21 21 20 18 18 18 17 16 15 15 14 14 15 15 15 16 17 19 20 21 21 21 21 21 21 22 22 23 23 23 24 25 25 25
35 36 36 37 38 37 36 36 34 33 32 29 27 26 25 24 24 23 22 20 19 19 19 18 18 16 13 12 11 10 10 11 10 10 11 13 14 14 14 14 12 11 11 14 17 21 23 23 21 20 20 18 17 16 17 18 19 20 19 16 14 13 14 14 15 15 16 17 18 20 20 20 21 21 21 21 21 22 22 23 23 25 25 25 25
35 36 36 37 38 37 36 36 34 32 29 27 26 25 24 23 23 23 21 20 19 19 19 18 17 15 15 16 15 14 15 15 13 13 14 15 15 15 15 14 13 12 12 14 17 20 20 19 17 16 14 13 13 13 15 16 17 20 20 17 14 14 15 15 15 16 17 18 19 20 20 20 20 21 21 21 22 22 22 23 24 24 24 24 25
35 36 36 37 37 37 36 35 33 30 28 27 26 25 24 23 23 23 21 20 19 18 18 17 16 15 16 18 17 16 16 15 14 15 15 14 15 15 13 12 11 10 10 13 17 18 17 15 14 12 10 11 11 11 13 13 13 15 18 18 17 16 16 15 15 16 17 18 19 19 19 20 20 21 21 22 23 23 23 23 23 23 23 23 24
36 37 37 36 35 34 33 32 31 29 28 27 26 24 23 22 22 21 20 19 17 17 16 16 16 17 17 17 17 16 15 14 13 14 13 13 14 14 11 10 11 11 12 14 16 16 14 12 11 10 9 10 11 10 9 10 11 12 14 16 18 17 16 16 19 19 18 18 19 19 19 20 21 21 22 22 23 23 23 22 22 22 23 23 24
37 36 35 33 32 31 30 29 28 28 28 27 26 24 23 22 21 19 18 17 17 16 16 16 16 16 16 15 15 15 14 12 12 13 13 13 13 11 10 12 15 15 15 15 14 13 12 10 10 10 9 11 13 13 10 9 10 12 13 15 16 17 17 20 21 20 18 18 18 19 20 21 22 22 22 22 22 22 22 22 22 22 22 23 23
34 33 32 31 30 29 28 28 28 28 27 26 25 24 23 22 20 18 18 18 17 16 15 15 15 16 16 16 16 16 15 14 13 12 12 12 11 9 11 15 17 16 14 13 12 11 11 10 10 11 11 11 13 14 12 10 11 13 14 15 15 16 17 19 19 18 17 18 19 20 21 21 21 21 22 22 22 22 22 22 22 22 22 22 23
31 29 28 28 27 27 27 28 28 27 26 25 24 22 21 20 19 19 18 19 19 18 17 15 15 16 17 18 18 19 17 14 12 11 11 11 10 11 14 16 16 14 13 12 11 10 11 11 11 12 12 12 13 13 12 12 13 14 14 15 16 17 18 18 18 18 18 19 20 21 21 21 20 21 22 23 22 22 22 22 22 22 22 23 24
28 27 25 24 24 24 25 25 24 24 23 22 21 20 19 19 18 18 18 18 18 19 19 17 16 16 17 17 18 17 16 13 12 11 10 10 12 15 15 15 14 14 13 11 10 11 11 12 13 13 14 14 15 14 13 15 17 17 17 17 18 19 19 19 18 19 20 21 21 21 21 21 21 21 21 22 23 22 23 23 23 23 23 23 24
26 26 26 24 23 22 22 21 20 20 20 19 19 18 18 18 18 18 18 18 18 18 19 18 17 17 17 16 15 14 15 15 14 12 10 12 15 16 15 14 14 14 14 12 11 12 12 12 13 14 15 15 16 16 15 17 18 19 19 19 19 19 19 19 19 19 20 21 21 21 22 22 21 21 21 22 23 23 23 23 23 24 24 25 25
25 25 24 23 21 20 19 18 18 18 18 18 18 17 18 18 18 18 18 17 17 17 18 18 18 18 17 16 14 13 14 15 15 12 12 14 17 16 14 14 15 14 14 14 12 12 13 13 14 14 15 16 16 17 17 18 18 19 20 20 19 18 18 19 18 18 19 19 20 21 22 22 22 21 21 21 23 23 23 24 24 24 25 25 23
21 21 20 19 18 17 17 17 17 17 17 17 17 17 17 17 17 17 17 16 16 17 17 18 19 19 18 17 15 13 13 14 13 10 9 13 16 15 13 14 15 15 15 15 14 13 13 14 14 15 16 16 17 17 18 19 20 21 21 20 19 18 17 17 17 18 18 19 20 21 22 22 22 20 20 21 22 23 24 25 25 24 24 24 23
17 17 16 15 15 15 15 16 16 17 17 17 17 17 17 18 18 18 17 16 16 17 17 19 20 20 19 17 15 13 13 13 12 9 8 10 13 14 13 14 15 15 15 15 15 14 14 15 15 15 16 16 17 18 18 19 21 22 22 20 18 17 17 17 17 17 18 19 21 22 23 23 22 20 20 21 22 23 24 25 25 25 24 24 24
14 14 14 14 14 14 14 14 15 15 16 16 16 16 17 17 17 18 17 16 16 16 17 20 21 21 19 17 14 12 13 13 13 12 13 14 16 16 16 15 15 15 16 15 15 15 15 15 16 16 17 17 17 18 18 20 21 21 22 21 20 18 17 17 17 17 18 19 21 23 24 24 23 21 21 22 22 22 24 24 24 24 24 24 24
12 12 12 12 13 13 12 12 13 13 14 14 15 16 16 16 16 16 15 16 16 16 17 20 22 21 19 17 14 12 13 15 16 18 20 21 20 19 17 16 15 15 15 15 15 15 15 16 17 17 18 18 18 18 19 20 21 21 22 23 22 21 19 17 17 18 18 18 21 24 25 24 23 23 23 22 21 21 22 24 24 24 24 23 23
10 10 10 11 11 12 12 12 12 13 13 14 15 16 16 16 16 16 16 17 18 18 17 19 22 22 20 18 15 13 15 17 20 23 24 23 22 20 18 17 16 15 15 15 15 15 15 16 17 18 19 19 19 19 19 20 21 21 22 23 23 23 22 19 17 18 18 19 23 27 26 23 23 24 24 23 22 22 22 23 23 23 23 23 23
9 9 10 10 10 11 12 12 13 14 14 15 16 17 17 18 18 18 19 20 21 20 19 20 21 21 20 19 16 15 16 19 21 22 22 22 21 20 18 17 16 15 15 15 15 15 16 17 18 19 20 20 20 20 21 21 21 21 21 23 23 24 24 22 19 18 18 20 26 30 27 22 22 26 27 25 24 23 22 22 22 22 23 22 21
9 9 10 10 10 11 12 12 12 13 14 15 16 16 17 18 19 20 20 20 19 19 19 19 19 19 19 19 18 17 17 18 19 19 20 20 19 18 17 17 16 16 16 16 16 16 17 18 19 19 20 21 21 21 22 22 22 22 21 22 23 23 24 24 21 19 19 22 26 29 26 22 24 30 31 28 25 22 21 22 22 22 21 21 20
7 7 8 8 9 9 10 10 11 12 13 14 15 15 14 15 17 19 21 21 20 20 20 17 15 16 18 19 19 18 17 17 17 18 18 18 18 18 17 17 17 17 17 17 17 18 18 19 20 21 21 21 22 22 23 23 23 23 22 22 22 23 24 23 21 20 19 20 24 27 25 24 27 32 33 30 26 22 21 21 22 21 20 20 20
5 6 6 7 8 9 10 11 12 13 14 15 16 16 15 15 17 19 20 21 20 21 21 18 15 16 19 20 19 18 17 16 17 17 17 17 17 17 17 17 17 18 18 19 19 19 20 20 21 21 22 22 22 23 23 23 23 23 23 22 22 22 23 22 21 20 18 18 22 25 24 25 29 33 32 29 26 24 23 22 22 21 20 19 19
4 5 6 7 8 10 11 12 13 14 15 15 16 17 17 18 18 19 20 20 19 19 20 19 18 18 19 19 18 17 17 16 17 17 17 17 17 17 17 18 18 19 20 20 20 20 21 21 22 22 22 22 23 23 23 23 23 23 23 23 22 21 22 22 21 19 16 17 21 23 22 24 28 31 30 27 26 24 23 24 24 22 20 19 18
2 3 4 6 7 9 10 11 12 13 14 14 15 16 17 18 19 19 19 20 19 18 18 19 19 18 18 17 16 16 16 16 17 17 17 17 18 18 18 19 19 20 21 21 21 21 21 21 21 21 21 22 23 23 23 23 23 23 23 23 21 21 21 20 19 16 15 16 20 21 22 24 28 29 27 25 24 23 23 24 24 24 22 19 18
3 4 6 7 8 9 10 11 12 13 14 14 15 16 17 18 19 19 19 19 19 19 19 18 18 17 17 16 15 15 15 16 17 17 18 18 19 19 19 19 20 20 20 21 21 21 21 21 21 21 21 22 22 22 23 23 23 23 23 22 21 21 20 19 18 16 13 15 18 21 22 25 27 27 25 24 23 22 22 22 23 22 20 18 17
6 7 8 9 10 10 11 12 13 14 14 15 16 17 18 18 19 19 19 18 19 19 18 18 17 16 16 16 15 15 16 16 17 18 18 19 19 19 19 19 19 19 20 20 21 21 21 21 21 20 20 21 21 21 22 22 22 22 22 22 22 21 19 18 19 17 13 12 16 21 23 24 26 25 23 21 21 21 22 22 21 20 18 16 16
Wind_Direction
152 151 151 150 148 146 145 141 136 130 124 118 112 104 95 85 75 66 56 46 38 30 23 16 11 6 3 0 358 356 355 352 350 350 349 349 348 346 345 345 345 344 341 341 339 337 335 333 332 329 326 323 319 314 310 307 305 300 296 291 285 280 277 276 276 285 290 290 287 287 287 289 293 296 300 302 302 302 301 295 291 290 287 288 293
158 157 155 155 154 152 150 145 140 135 130 125 118 109 100 90 80 69 56 42 32 23 16 11 7 3 360 357 356 354 353 351 350 349 349 347 346 345 344 344 343 341 339 337 335 333 331 329 326 323 320 318 315 312 308 306 303 298 294 291 286 283 276 276 278 282 289 294 293 293 293 289 287 292 296 299 301 303 303 299 295 291 287 285 286
163 162 160 160 160 158 155 150 146 142 139 134 126 118 112 103 89 70 50 34 24 16 11 7 2 358 356 353 351 350 349 348 348 347 346 345 344 343 341 340 339 337 335 332 330 328 326 322 319 318 317 316 314 311 306 303 301 297 293 291 286 285 282 277 278 279 286 292 294 296 299 298 295 298 300 299 299 301 302 301 300 296 292 288 283
168 167 166 167 166 164 161 157 155 153 148 144 140 138 133 120 95 60 40 25 16 10 5 1 356 353 351 348 346 345 345 344 344 344 343 342 340 338 338 337 336 334 330 328 326 324 322 317 316 319 319 314 312 310 307 304 302 298 295 293 289 288 287 281 278 280 284 288 291 294 298 302 303 304 306 304 300 299 299 300 301 300 297 293 289
173 173 172 173 171 170 169 166 166 164 160 159 162 163 156 134 90 44 28 14 8 4 358 354 351 348 345 342 342 341 341 341 340 340 339 338 336 335 335 335 333 331 328 327 325 322 318 314 313 317 317 312 311 310 307 305 303 300 296 295 294 292 290 288 284 282 283 285 289 293 297 301 304 306 308 308 306 303 301 301 301 300 299 297 294
179 179 178 178 178 178 177 177 176 176 177 182 185 183 178 157 65 18 8 1 358 355 352 348 344 342 339 337 337 337 338 337 336 336 336 334 333 333 334 333 330 329 328 326 324 320 316 313 311 311 312 308 308 308 306 306 304 301 299 298 298 296 292 291 289 286 284 284 287 293 297 300 304 305 307 309 308 306 305 304 301 299 301 303 302
184 185 184 184 186 186 186 187 187 189 194 197 199 200 206 224 316 346 347 348 347 346 344 341 338 336 333 331 332 334 334 334 333 333 333 331 331 332 331 329 326 325 324 320 318 317 314 312 309 308 307 305 304 306 307 307 304 300 300 300 299 298 295 293 293 290 289 287 288 291 295 299 301 303 306 309 306 303 306 308 307 305 305 305 303
189 189 189 190 193 194 194 195 197 202 204 205 208 215 226 247 287 320 330 333 334 336 337 335 331 329 327 325 328 330 330 331 331 331 330 331 330 327 324 323 321 320 320 316 314 314 313 311 306 302 300 299 298 299 300 302 301 298 298 299 299 298 296 296 296 294 292 291 291 293 295 297 299 301 305 308 305 303 307 308 305 303 303 303 300
194 194 194 197 200 201 201 203 206 209 210 211 217 226 237 253 281 303 314 318 322 328 329 327 324 321 320 320 323 328 328 328 329 328 328 328 325 321 319 319 318 315 314 313 312 311 310 304 299 299 302 303 301 297 292 291 293 293 295 297 297 296 296 295 296 296 294 292 291 294 295 295 299 303 305 307 305 304 307 305 300 299 303 304 300
199 198 199 201 204 205 207 210 213 213 214 218 224 232 242 256 277 292 301 307 314 321 320 318 316 314 315 316 320 325 325 325 325 325 325 323 318 316 315 315 313 308 304 305 306 307 305 299 296 300 305 307 306 302 295 290 289 288 289 292 293 294 295 295 294 294 294 293 293 295 296 294 297 302 302 301 301 300 302 301 298 299 304 302 298
202 202 203 205 207 208 211 213 215 216 218 223 228 234 244 256 271 284 295 301 306 311 311 310 310 310 311 312 317 324 323 321 323 321 319 315 311 310 308 304 299 295 294 295 299 302 302 300 299 300 304 305 303 301 297 294 293 291 290 290 289 289 291 292 293 294 293 291 290 291 292 292 294 296 295 296 296 296 298 298 297 298 301 300 299
205 206 207 209 210 211 215 216 216 219 223 226 230 236 243 255 269 280 289 293 297 302 303 303 304 306 308 310 315 320 320 318 318 316 313 309 308 306 300 294 289 286 287 291 296 299 299 300 301 298 300 303 302 300 298 297 296 295 293 292 289 287 286 286 287 288 288 287 286 286 287 288 291 292 292 293 294 295 296 295 293 294 295 296 296
208 209 211 212 213 215 218 218 219 223 226 228 231 236 244 254 266 276 282 286 290 294 296 298 301 303 306 309 312 316 318 315 313 312 310 306 307 303 295 290 283 280 286 292 295 297 297 297 299 296 296 300 301 300 299 298 298 297 294 291 288 285 283 281 280 280 280 280 280 280 281 282 284 286 286 288 290 291 290 289 288 288 289 291 292
210 211 213 214 217 219 220 220 222 225 227 228 231 236 244 254 263 271 276 279 284 289 292 294 298 302 305 307 310 314 316 313 312 312 308 305 307 300 290 285 281 284 290 292 291 291 292 293 294 294 296 297 297 298 298 298 298 295 290 286 283 280 277 277 279 278 276 274 275 276 276 276 278 280 281 282 282 281 281 282 283 282 281 284 287
211 213 214 216 219 220 221 221 224 226 227 229 232 237 243 251 259 267 271 274 280 285 288 292 296 300 304 305 306 311 314 313 312 310 306 305 303 294 288 287 288 289 291 290 284 283 286 288 289 292 293 294 293 293 295 296 294 291 287 284 283 280 275 274 276 276 273 270 269 270 270 269 268 270 273 272 271 272 272 272 275 278 281 284 287
213 215 216 219 220 221 222 223 225 226 227 229 232 236 242 248 256 263 266 270 276 281 285 291 295 298 301 303 305 310 313 313 310 306 304 303 298 293 294 294 291 287 284 283 283 281 280 282 286 290 291 291 291 292 293 295 294 290 286 284 284 283 281 280 277 273 272 272 271 271 270 269 267 268 270 271 270 273 275 276 279 285 287 289 289
215 217 218 221 222 223 225 225 225 226 227 229 232 235 240 247 253 259 264 268 274 279 284 289 292 295 300 302 304 307 311 312 308 304 302 299 296 296 298 293 286 282 280 282 284 281 276 277 283 288 289 289 291 294 296 297 295 292 289 288 286 282 281 282 278 274 276 280 282 284 283 281 279 279 280 279 278 281 284 284 286 288 287 287 288
218 219 221 223 224 226 226 226 226 226 227 229 231 234 239 245 251 257 262 267 272 277 282 287 291 295 299 302 303 304 308 311 307 303 300 296 294 295 294 288 281 281 283 284 283 280 279 282 285 286 285 287 292 298 300 300 297 294 292 289 284 279 279 280 278 277 278 279 281 285 285 285 286 286 284 281 280 282 282 281 282 283 282 281 282
220 221 224 225 225 226 227 226 226 227 228 229 230 233 239 244 250 256 260 265 270 275 280 286 290 294 297 299 301 301 305 308 304 300 297 293 291 291 288 282 281 283 284 284 287 289 289 290 290 287 286 290 295 300 301 300 297 293 289 286 282 280 281 282 280 279 278 276 274 277 278 279 280 279 276 273 272 272 272 274 276 277 277 276 278
223 223 224 224 225 226 226 225 226 226 227 228 229 232 238 244 249 254 259 263 269 275 281 285 289 292 295 297 299 300 302 303 300 296 294 290 287 284 280 277 280 283 285 287 293 297 297 295 294 293 293 296 298 300 301 300 297 295 293 289 286 287 292 294 293 292 290 287 285 282 282 281 277 273 271 269 266 265 266 269 270 271 272 273 274
223 223 223 224 225 225 224 224 225 225 226 226 229 233 237 244 249 253 257 263 268 274 280 285 288 291 294 295 298 299 298 299 299 297 293 290 285 278 275 275 279 285 288 291 294 296 296 297 297 297 299 301 303 303 303 303 304 303 301 298 296 298 302 304 304 303 301 299 298 296 293 290 284 279 276 272 268 266 266 266 266 266 267 269 272
222 223 223 223 224 224 223 223 222 222 224 225 228 234 238 243 248 252 256 263 269 274 279 284 287 291 293 295 297 297 296 298 300 298 295 291 284 277 276 277 281 287 291 292 293 294 295 298 301 301 303 306 307 308 308 309 308 306 304 303 303 305 306 307 308 309 307 304 301 297 292 288 284 280 278 275 272 270 268 266 265 265 265 266 268
223 223 223 222 222 221 221 221 221 221 224 226 229 234 239 243 247 251 257 264 269 274 279 283 287 290 293 296 299 300 298 297 298 301 303 301 288 281 280 282 285 288 290 291 293 295 297 300 303 305 308 310 311 311 311 310 308 306 305 307 309 310 310 309 310 311 309 305 301 296 291 287 282 279 278 276 275 273 271 269 266 266 267 266 266
222 221 221 220 220 220 220 220 221 222 224 227 230 233 238 242 246 251 257 262 268 273 278 283 287 290 295 298 303 306 305 304 305 308 314 309 292 286 286 288 289 290 291 292 294 297 301 305 307 310 312 312 311 311 310 309 308 308 311 314 316 316 314 312 310 309 307 304 301 297 293 288 284 282 280 279 279 278 276 273 271 269 268 268 267
218 218 218 217 218 219 219 219 221 223 225 228 230 234 237 240 245 250 255 260 265 270 275 280 285 290 294 298 305 309 310 312 316 320 323 314 294 290 293 293 293 294 294 295 297 301 304 307 310 312 312 312 313 313 313 311 312 314 318 321 321 321 318 314 311 309 306 302 299 296 294 291 288 287 286 285 284 282 280 277 275 273 271 270 270
217 216 216 217 218 218 218 219 220 222 225 228 231 234 237 240 243 248 252 257 262 267 273 278 283 288 292 299 306 309 308 310 316 319 321 311 299 303 306 300 296 296 296 298 301 302 303 306 310 313 314 317 322 323 319 317 319 321 324 325 324 321 318 314 312 309 304 301 299 296 295 294 293 292 290 289 286 284 283 283 281 278 275 274 273
218 217 217 217 217 218 219 220 220 222 224 226 229 232 235 238 242 245 249 255 260 265 269 274 278 283 288 295 301 301 295 299 305 305 298 297 306 315 315 307 301 298 298 303 304 298 300 306 312 315 319 326 335 338 332 329 330 328 325 323 319 315 313 310 306 303 300 300 299 297 297 297 296 295 295 293 290 288 287 288 286 284 281 280 278
220 220 220 218 218 219 220 220 221 222 224 226 229 232 235 239 242 246 250 255 258 261 265 269 274 278 282 287 292 288 277 285 293 289 282 293 304 308 306 304 304 302 307 312 305 298 304 312 317 323 330 336 341 342 338 336 335 331 325 319 312 308 308 308 305 302 300 300 300 298 298 298 297 297 296 295 293 292 292 292 290 289 288 284 280
221 221 219 218 218 219 219 219 221 222 225 227 230 234 238 242 245 249 252 254 257 261 264 267 271 275 276 278 280 277 275 281 286 283 284 291 296 295 296 300 303 305 313 313 304 302 310 318 323 331 338 338 337 335 334 336 335 331 326 321 313 309 309 310 310 309 307 306 303 300 300 300 298 298 298 296 295 295 296 296 295 294 293 288 282
220 220 219 218 218 218 217 218 220 222 224 228 232 236 240 243 247 250 253 254 257 260 263 267 272 277 280 282 285 285 285 288 288 282 283 288 290 289 292 296 298 305 313 309 303 306 314 320 324 331 335 331 325 325 330 333 331 326 324 322 317 314 312 310 311 313 311 309 306 303 302 301 301 300 299 298 298 299 299 298 297 296 294 290 286
221 220 220 220 220 218 217 218 219 220 224 228 231 235 239 243 247 252 255 256 258 260 264 266 267 266 269 276 282 283 281 280 277 275 279 285 286 287 291 294 295 304 312 307 303 306 313 318 322 324 323 320 317 317 321 324 319 315 317 317 317 317 314 311 314 315 312 310 309 307 306 304 303 303 303 302 301 301 301 300 298 296 293 291 289
225 224 223 222 221 219 219 218 218 219 223 226 229 233 236 241 247 253 256 258 256 256 258 259 256 252 253 259 265 267 266 264 264 269 275 279 281 284 288 285 283 291 301 300 298 303 310 314 315 312 310 311 312 310 310 310 308 306 307 308 312 314 312 313 316 314 310 308 310 311 310 309 307 305 304 303 303 302 301 300 299 297 296 293 291
229 228 225 222 220 219 219 219 219 221 224 226 228 231 235 239 243 247 252 255 254 251 251 253 254 252 249 248 250 254 257 260 264 268 271 274 279 281 276 270 275 288 296 294 293 300 308 308 305 305 304 305 311 315 311 300 301 303 299 298 301 304 309 316 318 312 306 306 310 311 310 310 308 307 306 305 304 302 301 300 299 298 298 296 295
229 229 226 224 222 222 221 221 223 224 226 227 229 232 235 239 242 243 243 248 254 255 253 249 247 245 244 242 242 244 250 260 265 265 268 274 275 266 260 269 281 291 293 287 288 299 306 303 301 306 306 305 311 317 313 304 303 302 296 295 296 298 305 313 312 305 303 307 310 310 310 310 310 309 308 307 306 304 302 301 301 300 299 299 298
227 227 227 226 225 225 225 225 226 226 227 228 230 233 236 240 243 244 242 245 251 256 258 254 247 244 244 246 248 248 251 258 261 261 266 270 260 249 257 273 286 289 286 283 288 297 303 303 303 306 306 306 311 315 311 309 310 304 296 296 298 300 304 307 305 304 308 311 312 312 312 313 312 311 309 307 306 304 303 302 302 300 299 299 298
224 223 223 223 223 225 226 227 227 228 230 231 232 235 238 239 242 244 246 249 251 255 259 259 255 251 249 251 251 249 246 245 248 253 260 259 249 250 263 277 282 281 281 285 290 296 302 306 307 308 309 308 311 314 312 313 315 311 304 300 299 299 302 304 305 308 312 313 313 313 314 314 314 313 312 309 306 304 303 302 302 301 299 298 298
221 220 220 221 223 224 226 228 228 229 231 233 234 236 237 239 242 244 247 250 252 255 259 260 260 260 258 256 253 247 241 240 242 242 244 249 251 256 265 271 272 275 279 284 288 294 300 305 308 310 312 310 311 313 314 315 317 315 311 308 302 297 298 301 304 307 311 314 316 317 316 316 316 315 314 311 308 306 305 304 303 302 300 300 298
219 219 220 222 225 226 228 228 228 228 230 232 235 236 238 240 243 245 247 250 251 253 257 260 261 261 259 257 255 249 246 247 246 237 231 241 249 255 262 266 268 272 276 281 287 292 297 303 307 310 312 311 312 314 315 317 317 314 311 310 305 300 299 301 304 307 311 315 318 319 318 317 316 316 315 312 308 307 307 306 306 304 302 301 299
216 218 222 226 228 231 232 231 230 230 231 234 236 238 240 241 243 244 246 249 250 251 253 257 260 261 260 260 261 259 255 254 251 237 226 236 245 252 259 265 268 270 273 279 286 289 294 300 305 308 311 312 314 316 316 317 319 318 316 313 307 302 303 305 306 309 313 315 318 321 320 319 317 316 315 312 309 308 308 307 306 304 302 301 300
215 219 224 228 231 234 236 235 234 234 236 239 242 244 244 245 246 247 247 248 250 252 253 255 260 265 265 264 264 262 258 255 250 238 229 239 252 261 264 264 266 268 271 276 281 285 291 296 300 304 309 311 314 318 319 318 319 319 318 314 306 300 301 305 306 308 311 314 318 320 320 320 319 318 315 314 312 310 309 307 305 304 302 301 300
222 226 229 229 230 233 236 237 238 241 245 248 250 251 251 252 251 251 251 251 252 255 258 259 263 268 270 269 266 259 255 256 255 250 249 254 263 269 267 262 262 265 268 272 277 282 287 292 296 301 305 308 312 317 318 317 317 316 315 315 312 306 302 303 305 307 309 312 318 320 319 319 321 319 316 315 314 312 310 308 306 305 305 304 303
227 229 229 229 229 231 236 240 245 250 253 254 254 255 256 257 256 255 254 254 255 258 261 264 268 271 272 271 267 255 250 253 254 254 257 262 266 268 266 262 261 263 265 269 274 278 283 288 292 297 301 305 310 313 313 315 315 312 311 314 317 314 309 305 304 307 308 309 315 319 319 318 320 321 317 315 314 313 312 310 309 309 308 308 309
232 234 237 238 239 242 245 249 253 254 254 255 258 260 261 261 260 259 259 260 261 261 261 265 271 274 274 273 268 254 246 246 247 250 256 261 264 266 265 263 262 263 265 268 272 276 281 285 289 293 297 300 305 307 308 309 311 310 310 313 315 316 314 310 306 307 307 308 315 320 318 316 320 322 319 316 315 314 313 311 312 313 312 312 313
241 243 244 246 248 251 253 255 257 259 261 263 265 266 265 264 263 263 263 263 263 262 262 264 269 272 274 275 272 261 251 248 249 251 255 258 261 263 263 264 266 266 266 270 273 276 280 283 286 290 294 297 300 302 303 305 306 307 309 311 312 313 314 312 309 307 305 307 316 322 319 315 319 324 323 320 318 315 313 313 313 315 315 315 316
246 247 250 252 254 258 261 263 264 266 267 268 267 267 266 265 264 263 263 262 262 262 263 264 266 267 270 272 272 268 262 257 255 255 256 257 259 261 262 265 268 269 270 273 276 278 281 285 287 289 292 294 297 299 300 302 304 304 305 308 308 310 313 314 312 308 304 306 317 322 319 313 319 325 326 324 321 315 313 314 314 314 315 316 316
250 252 255 258 260 263 266 269 270 271 270 269 268 267 266 266 265 264 264 265 265 265 266 266 265 266 269 271 271 270 268 264 260 259 258 258 260 263 265 267 269 272 274 277 279 281 284 286 288 291 293 294 296 298 298 299 302 302 304 305 305 306 311 314 314 309 305 309 320 323 316 310 318 325 327 326 324 319 315 315 315 313 314 316 317
262 263 265 266 268 270 272 272 273 273 272 271 270 269 269 270 271 272 273 272 271 271 270 270 268 268 271 274 274 272 271 269 266 263 262 262 263 265 268 270 272 274 276 279 281 284 287 288 289 292 293 294 296 297 297 298 300 301 302 304 304 305 309 312 311 308 307 315 325 323 312 308 319 326 327 327 327 325 322 321 321 317 314 314 317
274 273 273 273 271 272 274 275 274 273 273 273 273 274 275 276 277 278 278 278 276 274 272 271 271 273 275 276 277 276 274 272 269 266 265 266 268 270 272 274 275 277 279 281 283 285 287 289 290 292 293 295 296 297 297 298 299 300 301 301 301 303 306 308 308 307 309 319 326 321 311 311 321 326 327 328 330 328 325 326 327 325 320 317 319
294 285 281 279 277 277 278 277 275 274 274 275 275 277 278 279 279 280 279 277 275 274 272 271 273 275 276 276 277 276 275 273 271 270 270 271 272 274 275 276 278 279 281 283 285 287 287 289 291 292 293 295 296 296 297 298 298 299 300 301 302 303 304 304 306 308 310 317 321 316 310 316 324 328 327 330 333 332 328 329 331 332 330 325 322
297 294 291 288 287 287 286 283 282 282 281 280 281 281 282 282 282 282 281 280 278 277 276 275 275 276 276 276 275 274 273 273 273 273 274 275 276 277 278 279 279 281 282 284 287 288 288 289 291 292 294 295 296 296 297 297 297 298 300 301 302 303 303 304 308 309 308 312 316 312 311 318 326 328 328 331 335 336 334 332 333 335 333 328 326
295 294 293 290 290 291 290 288 288 287 286 284 284 284 284 284 285 284 284 283 282 281 280 280 280 278 277 276 275 274 274 274 274 275 276 277 278 279 280 280 280 282 283 285 287 288 289 291 293 294 295 296 297 298 298 298 298 299 299 300 302 303 305 309 311 307 300 305 312 312 312 319 326 329 330 333 336 339 338 337 336 336 334 331 332